Flag for Brazil Weather past 2 weeks in Salvador, Bahia, Brazil

Now
79 °F

Passing clouds.


Feels Like: 81 °F
Forecast: 75 / 85 °F
Wind: 5 mph from East

Location: Salvador Aeroporto

Current Time: Mar 27, 2015 at 4:46:25 AM

Latest Report: Mar 27, 2015 at 4:00 AM


Visibility: N/A

Pressure: 29.92 "Hg

Humidity: 74%

Dew point: 70 °F

Location of SalvadorLocation

Historic Weather in Salvador — Graph

°F

Salvador temperature yesterday

Maximum temperature yesterday: 82 °F (at 11:00 AM)
Minimum temperature yesterday: 77 °F (at 6:00 AM)
Average temperature yesterday: 80 °F

Past Weeks' High & Low Weather Summary

 TemperatureHumidityPressure
High90 °F (Mar 23, 1:00 PM)94% (Mar 15, 3:00 AM)30.04 "Hg (Mar 15, 3:00 AM)
Low73 °F (Mar 15, 3:00 AM)55% (Mar 12, 1:00 PM)29.83 "Hg (Mar 12, 3:00 PM)
Average82 °F70%29.91 "Hg
* Reported Mar 12 4:00 AM — Mar 27 4:00 AM, Salvador, Weather by CustomWeather, © 2015

Note: Actual official high and low records may vary slightly from our data, if they occured in-between our weather recording intervals... More about our weather records

Advertising

Salvador weather history for previous 24 hours

 ConditionsComfort  
Time TempWeatherWind HumidityBarometerVisibility
4:00 AM
Fri, Mar 27
79 °FPassing clouds.5 mph74%29.92 "HgN/A
3:00 AM81 °FPassing clouds.3 mph70%29.92 "HgN/A
2:00 AM79 °FPassing clouds.5 mph74%29.92 "HgN/A
1:00 AM81 °FPassing clouds.6 mph70%29.92 "HgN/A
12:00 AM81 °FPassing clouds.5 mph70%29.92 "HgN/A
11:00 PM
Thu, Mar 26
81 °FPassing clouds.6 mph70%29.95 "HgN/A
10:00 PM79 °FPassing clouds.5 mph74%29.95 "HgN/A
9:00 PM79 °FPassing clouds.6 mph79%29.95 "HgN/A
8:00 PM79 °FPassing clouds.7 mph79%29.92 "HgN/A
7:00 PM79 °FPassing clouds.6 mph74%29.92 "HgN/A
6:00 PM79 °FPassing clouds.7 mph70%29.89 "HgN/A
5:00 PM81 °FPassing clouds.7 mph66%29.89 "HgN/A
4:00 PM81 °FPassing clouds.8 mph66%29.89 "HgN/A
3:00 PM82 °FScattered clouds.7 mph62%29.89 "HgN/A
2:00 PM82 °FScattered clouds.8 mph66%29.89 "HgN/A
1:00 PM82 °FScattered clouds.9 mph62%29.92 "HgN/A
12:00 PM82 °FScattered clouds.7 mph62%29.92 "HgN/A
11:00 AM82 °FBroken clouds.5 mph70%29.95 "HgN/A
10:00 AM79 °FPartly sunny.6 mph84%29.98 "Hg5 mi
9:00 AM77 °FHeavy rain. Fog.5 mph89%29.95 "Hg1 mi
8:00 AM77 °FLight rain. Fog.2 mph89%29.95 "Hg3 mi
7:00 AM77 °FLight rain. Fog.8 mph89%29.95 "Hg2 mi
6:00 AM77 °FScattered showers. Scattered clouds.3 mph83%N/AN/A
5:00 AM79 °FPassing clouds.2 mph74%29.92 "HgN/A
4:00 AM79 °FPassing clouds.5 mph74%29.89 "HgN/A
Weather by CustomWeather, © 2015

See weather overviewHow to use our weather pages